Weather History for Escanaba, MI

Change the Weather History Date:

Sunday, October 7, 2012

  Actual Average Record
Temperature  
Mean Temperature 40 °F -  
Max Temperature 51 °F 54 °F 78 °F (2007)
Min Temperature 28 °F 41 °F 26 °F (2001)
Degree Days  
Heating Degree Days 26    
Moisture  
Dew Point 21 °F    
Average Humidity 54    
Maximum Humidity 86    
Minimum Humidity 21    
Precipitation  
Precipitation 0.00 in - - ()
Sea Level Pressure  
Sea Level Pressure 30.05 in    
Wind  
Wind Speed 8 mph (West)    
Max Wind Speed 16 mph    
Max Gust Speed 23 mph    
Visibility 10 miles    
Events      
Averages and records for this station are not official NWS values.
T = Trace of Precipitation, MM = Missing Value Source: NWS Daily Summary

Daily Weather History Graph

Daily Weather History Graph

Search for Another Location

Airport:

Trip Planner

Search our weather history database for the weather conditions in past years. The results will help you decide how hot, cold, wet, or windy it might be!

Date:

Astronomy

Oct. 07, 2012 Rise Set
Actual Time 7:55 AM EDT 7:16 PM EDT
Civil Twilight 7:25 AM EDT 7:45 PM EDT
Nautical Twilight 6:50 AM EDT 8:20 PM EDT
Astronomical Twilight 6:16 AM EDT 8:54 PM EDT
Moon No Moon Rise 2:44 PM EDT (10/7)
Length of Visible Light 12h 20m
Length of Day
11h 21m
Waning Gibbous, 56% of the Moon is Illuminated
Oct 7
Waning Gibbous
Oct 8
Last Quarter
Oct 15
New
Oct 21
First Quarter
Oct 29
Full

Hourly Weather History & Observations

Time (EDT) Temp. Windchill Dew Point Humidity Pressure Visibility Wind Dir Wind Speed Gust Speed Precip Events Conditions
12:15 AM 32.0 °F 24.8 °F 24.8 °F 75% 30.13 in 10.0 mi West 8.1 mph - N/A   Overcast
12:35 AM 33.8 °F 27.7 °F 26.6 °F 75% 30.13 in 10.0 mi West 6.9 mph - N/A   Overcast
12:55 AM 33.8 °F 27.7 °F 26.6 °F 75% 30.12 in 10.0 mi West 6.9 mph - N/A   Overcast
1:15 AM 33.8 °F 27.7 °F 26.6 °F 75% 30.12 in 10.0 mi WNW 6.9 mph - N/A   Overcast
1:35 AM 33.8 °F 27.0 °F 26.6 °F 75% 30.12 in 10.0 mi West 8.1 mph - N/A   Overcast
1:55 AM 33.8 °F 27.7 °F 26.6 °F 75% 30.12 in 10.0 mi West 6.9 mph - N/A   Overcast
2:35 AM 35.6 °F 28.6 °F 26.6 °F 70% 30.11 in 10.0 mi West 9.2 mph - N/A   Overcast
2:55 AM 35.6 °F 29.9 °F 26.6 °F 70% 30.12 in 10.0 mi West 6.9 mph - N/A   Overcast
3:15 AM 35.6 °F 29.9 °F 26.6 °F 70% 30.11 in 10.0 mi West 6.9 mph - N/A   Overcast
3:35 AM 35.6 °F 29.9 °F 26.6 °F 70% 30.10 in 10.0 mi West 6.9 mph - N/A   Overcast
3:55 AM 33.8 °F 28.6 °F 26.6 °F 75% 30.10 in 10.0 mi WNW 5.8 mph - N/A   Mostly Cloudy
4:15 AM 33.8 °F 29.6 °F 26.6 °F 75% 30.10 in 10.0 mi West 4.6 mph - N/A   Mostly Cloudy
4:35 AM 32.0 °F 26.4 °F 26.6 °F 80% 30.10 in 10.0 mi West 5.8 mph - N/A   Overcast
4:55 AM 32.0 °F 27.5 °F 26.6 °F 80% 30.09 in 10.0 mi West 4.6 mph - N/A   Overcast
5:15 AM 32.0 °F 27.5 °F 26.6 °F 80% 30.10 in 10.0 mi WNW 4.6 mph - N/A   Overcast
5:35 AM 32.0 °F 28.7 °F 24.8 °F 75% 30.09 in 10.0 mi West 3.5 mph - N/A   Overcast
5:55 AM 30.2 °F 24.3 °F 24.8 °F 80% 30.09 in 10.0 mi West 5.8 mph - N/A   Overcast
6:15 AM 30.2 °F 24.3 °F 24.8 °F 80% 30.09 in 10.0 mi West 5.8 mph - N/A   Mostly Cloudy
6:35 AM 30.2 °F 25.4 °F 24.8 °F 80% 30.09 in 10.0 mi West 4.6 mph - N/A   Mostly Cloudy
6:55 AM 30.2 °F 25.4 °F 24.8 °F 80% 30.09 in 10.0 mi WNW 4.6 mph - N/A   Mostly Cloudy
7:15 AM 30.2 °F 24.3 °F 24.8 °F 80% 30.09 in 10.0 mi WNW 5.8 mph - N/A   Partly Cloudy
7:35 AM 28.4 °F 22.2 °F 24.8 °F 86% 30.09 in 10.0 mi WNW 5.8 mph - N/A   Partly Cloudy
7:55 AM 28.4 °F - 23.0 °F 80% 30.09 in 10.0 mi Calm Calm - N/A   Mostly Cloudy
8:15 AM 30.2 °F - 24.8 °F 80% 30.08 in 10.0 mi Calm Calm - N/A   Overcast
8:35 AM 30.2 °F 24.3 °F 26.6 °F 86% 30.09 in 10.0 mi WNW 5.8 mph - N/A   Mostly Cloudy
8:55 AM 30.2 °F 25.4 °F 26.6 °F 86% 30.09 in 10.0 mi WNW 4.6 mph - N/A   Scattered Clouds
9:15 AM 35.6 °F 30.7 °F 28.4 °F 75% 30.09 in 10.0 mi WNW 5.8 mph - N/A   Partly Cloudy
9:55 AM 39.2 °F 32.5 °F 28.4 °F 65% 30.09 in 10.0 mi West 10.4 mph - N/A   Clear
10:15 AM 41.0 °F 34.7 °F 28.4 °F 61% 30.09 in 10.0 mi WNW 10.4 mph - N/A   Clear
10:55 AM 44.6 °F 38.1 °F 24.8 °F 46% 30.08 in 10.0 mi WNW 13.8 mph - N/A   Clear
1:15 PM 48.2 °F - 17.6 °F 30% 30.06 in 10.0 mi West 16.1 mph 21.9 mph N/A   Scattered Clouds
1:35 PM 48.2 °F - 19.4 °F 32% 30.05 in 10.0 mi SW 12.7 mph 19.6 mph N/A   Partly Cloudy
1:55 PM 48.2 °F - 17.6 °F 30% 30.04 in 10.0 mi West 15.0 mph 23.0 mph N/A   Clear
2:15 PM 50.0 °F - 17.6 °F 28% 30.03 in 10.0 mi WNW 15.0 mph 19.6 mph N/A   Clear
2:35 PM 50.0 °F - 17.6 °F 28% 30.03 in 10.0 mi West 11.5 mph 21.9 mph N/A   Clear
2:55 PM 50.0 °F - 15.8 °F 26% 30.02 in 10.0 mi West 13.8 mph 20.7 mph N/A   Partly Cloudy
3:15 PM 48.2 °F - 14.0 °F 25% 30.02 in 10.0 mi West 11.5 mph - N/A   Partly Cloudy
3:35 PM 50.0 °F - 15.8 °F 26% 30.01 in 10.0 mi SW 11.5 mph 17.3 mph N/A   Scattered Clouds
3:55 PM 51.8 °F - 12.2 °F 21% 30.01 in 10.0 mi WSW 13.8 mph - N/A   Partly Cloudy
4:15 PM 51.8 °F - 15.8 °F 24% 30.00 in 10.0 mi WSW 11.5 mph 17.3 mph N/A   Clear
4:35 PM 51.8 °F - 15.8 °F 24% 29.99 in 10.0 mi WSW 15.0 mph 19.6 mph N/A   Scattered Clouds
4:55 PM 50.0 °F - 15.8 °F 26% 29.99 in 10.0 mi West 4.6 mph - N/A   Partly Cloudy
5:15 PM 50.0 °F - 15.8 °F 26% 29.99 in 10.0 mi West 13.8 mph - N/A   Clear
5:35 PM 50.0 °F - 15.8 °F 26% 29.98 in 10.0 mi WSW 12.7 mph - N/A   Clear
5:55 PM 50.0 °F - 15.8 °F 26% 29.99 in 10.0 mi WSW 9.2 mph 18.4 mph N/A   Clear
6:15 PM 50.0 °F - 15.8 °F 26% 29.99 in 10.0 mi WSW 8.1 mph - N/A   Clear
6:35 PM 48.2 °F - 15.8 °F 27% 29.99 in 10.0 mi WSW 5.8 mph - N/A   Scattered Clouds
6:55 PM 48.2 °F - 15.8 °F 27% 29.99 in 10.0 mi SW 4.6 mph - N/A   Partly Cloudy
7:15 PM 46.4 °F 43.5 °F 15.8 °F 29% 29.99 in 10.0 mi SW 5.8 mph - N/A   Clear
7:35 PM 44.6 °F 40.7 °F 17.6 °F 34% 29.99 in 10.0 mi SW 6.9 mph - N/A   Clear
8:15 PM 39.2 °F 34.2 °F 17.6 °F 42% 29.99 in 10.0 mi SW 6.9 mph - N/A   Clear
8:55 PM 39.2 °F 35.9 °F 17.6 °F 42% 30.00 in 10.0 mi SW 4.6 mph - N/A   Clear
9:15 PM 37.4 °F 33.8 °F 17.6 °F 45% 30.00 in 10.0 mi WSW 4.6 mph - N/A   Clear
9:35 PM 35.6 °F 29.9 °F 19.4 °F 52% 30.00 in 10.0 mi SW 6.9 mph - N/A   Clear
9:55 PM 35.6 °F 29.9 °F 17.6 °F 48% 30.01 in 10.0 mi SW 6.9 mph - N/A   Clear
10:15 PM 35.6 °F 30.7 °F 17.6 °F 48% 30.01 in 10.0 mi SW 5.8 mph - N/A   Clear
10:35 PM 35.6 °F 31.7 °F 17.6 °F 48% 30.01 in 10.0 mi WSW 4.6 mph - N/A   Clear
10:55 PM 35.6 °F 29.9 °F 17.6 °F 48% 30.01 in 10.0 mi SW 6.9 mph - N/A   Clear
11:15 PM 35.6 °F 29.9 °F 17.6 °F 48% 30.01 in 10.0 mi WSW 6.9 mph - N/A   Clear
11:35 PM 37.4 °F 31.4 °F 17.6 °F 45% 30.01 in 10.0 mi WSW 8.1 mph - N/A   Clear
11:55 PM 39.2 °F 33.0 °F 17.6 °F 42% 30.00 in 10.0 mi WSW 9.2 mph - N/A   Clear